TimeCET,TemperatureF,Dew PointF,Humidity,Sea Level PressureIn,VisibilityMPH,Wind Direction,Wind SpeedMPH,Gust SpeedMPH,PrecipitationIn,Events,Conditions,WindDirDegrees,DateUTC
12:00 AM,30,26,81,30.15,9,Calm,Calm,,,,Overcast,,2013-12-19 23:00:00
12:00 AM,30.2,26.6,86,30.09,6.2,Calm,Calm,-,N/A,,Overcast,0,2013-12-19 23:00:00
1:00 AM,31,26,76,30.17,9,East,4.5,,,,Overcast,90,2013-12-20 00:00:00
1:00 AM,30.2,26.6,86,30.09,6.2,East,6.9,-,N/A,,Overcast,90,2013-12-20 00:00:00
2:00 AM,30,26,78,30.18,6,East,4.5,,,,Mostly Cloudy,80,2013-12-20 01:00:00
2:00 AM,30.2,26.6,86,30.12,6.2,East,4.6,-,N/A,,Mostly Cloudy,80,2013-12-20 01:00:00
3:00 AM,30,26,77,30.19,6,NE,2.2,,,,Overcast,50,2013-12-20 02:00:00
3:00 AM,30.2,24.8,80,30.12,6.2,Variable,1.2,-,N/A,,Overcast,0,2013-12-20 02:00:00
4:00 AM,30,26,78,30.20,6,ESE,2.2,,,,Overcast,110,2013-12-20 03:00:00
4:00 AM,30.2,26.6,86,30.15,6.2,Variable,1.2,-,N/A,,Overcast,0,2013-12-20 03:00:00
5:00 AM,30,26,80,30.22,6,East,2.2,,,,Overcast,90,2013-12-20 04:00:00
5:00 AM,30.2,26.6,86,30.15,6.2,East,2.3,-,N/A,,Overcast,90,2013-12-20 04:00:00
6:00 AM,29,26,83,30.24,6,Calm,Calm,,,,Overcast,,2013-12-20 05:00:00
6:00 AM,28.4,26.6,93,30.18,-9999.0,Calm,Calm,-,N/A,,Clear,0,2013-12-20 05:00:00
7:00 AM,29,26,85,30.25,6,East,2.2,,,,Overcast,90,2013-12-20 06:00:00
7:00 AM,30.2,26.6,86,30.18,-9999.0,Variable,1.2,-,N/A,,Clear,0,2013-12-20 06:00:00
8:00 AM,29,26,85,30.25,4,East,4.5,,,,Mist,90,2013-12-20 07:00:00
8:00 AM,30.2,26.6,86,30.18,4.3,East,3.5,-,N/A,,Unknown,90,2013-12-20 07:00:00
9:00 AM,31,26,76,30.26,4,East,2.2,,,,Mist,90,2013-12-20 08:00:00
9:00 AM,30.2,26.6,86,30.21,4.3,Variable,2.3,-,N/A,,Unknown,0,2013-12-20 08:00:00
10:00 AM,32,27,75,30.27,5,East,2.2,,,,Mist,80,2013-12-20 09:00:00
10:00 AM,32.0,26.6,80,30.21,5.0,East,3.5,-,N/A,,Unknown,80,2013-12-20 09:00:00
11:00 AM,33,27,71,30.29,6,Calm,Calm,,,,Overcast,,2013-12-20 10:00:00
11:00 AM,33.8,26.6,75,30.24,-9999.0,Variable,1.2,21.9,N/A,,Clear,0,2013-12-20 10:00:00
12:00 PM,34,28,70,30.28,6,SSE,2.2,,,,Overcast,150,2013-12-20 11:00:00
12:00 PM,33.8,28.4,81,30.21,-9999.0,Variable,2.3,-,N/A,,Clear,0,2013-12-20 11:00:00
1:00 PM,34,28,71,30.29,5,WSW,4.5,,,,Mist,250,2013-12-20 12:00:00
1:00 PM,33.8,28.4,81,30.24,5.0,WSW,3.5,-,N/A,,Overcast,240,2013-12-20 12:00:00
2:00 PM,34,28,70,30.31,5,WSW,2.2,,,,Mist,240,2013-12-20 13:00:00
2:00 PM,35.6,30.2,81,30.27,5.0,WSW,3.5,-,N/A,,Overcast,240,2013-12-20 13:00:00
3:00 PM,33,28,77,30.34,5,SSW,2.2,,,,Mist,210,2013-12-20 14:00:00
3:00 PM,33.8,28.4,81,30.27,5.0,Variable,2.3,-,N/A,,Mostly Cloudy,0,2013-12-20 14:00:00
4:00 PM,33,29,77,30.38,5,South,2.2,,,,Mist,190,2013-12-20 15:00:00
4:00 PM,32.0,28.4,87,30.33,5.0,South,2.3,-,N/A,,Overcast,190,2013-12-20 15:00:00
5:00 PM,33,29,77,30.41,5,SW,2.2,,,,Mist,220,2013-12-20 16:00:00
5:00 PM,32.0,28.4,87,30.36,5.0,Variable,2.3,-,N/A,,Overcast,0,2013-12-20 16:00:00
6:00 PM,34,29,74,30.41,5,Calm,Calm,,,,Mist,,2013-12-20 17:00:00
6:00 PM,33.8,28.4,81,30.36,5.0,Calm,Calm,-,N/A,,Overcast,0,2013-12-20 17:00:00
7:00 PM,34,29,75,30.43,5,SW,2.2,,,Rain,Light Rain Showers,230,2013-12-20 18:00:00
7:00 PM,33.8,28.4,81,30.39,5.0,WSW,3.5,-,N/A,,Overcast,240,2013-12-20 18:00:00
8:00 PM,34,29,77,30.46,9,SSW,2.2,,,,Overcast,210,2013-12-20 19:00:00
8:00 PM,33.8,30.2,87,30.39,6.2,Variable,2.3,-,N/A,,Overcast,0,2013-12-20 19:00:00
9:00 PM,33,30,84,30.48,9,Calm,Calm,,,,Overcast,,2013-12-20 20:00:00
9:00 PM,33.8,30.2,87,30.42,6.2,Calm,Calm,-,N/A,,Overcast,0,2013-12-20 20:00:00
10:00 PM,33,30,83,30.50,6,East,4.5,,,,Overcast,90,2013-12-20 21:00:00
10:00 PM,32.0,30.2,93,30.45,6.2,East,3.5,-,N/A,,Overcast,100,2013-12-20 21:00:00
11:00 PM,34,30,79,30.51,6,ENE,2.2,,,,Overcast,60,2013-12-20 22:00:00
11:00 PM,33.8,30.2,87,30.45,6.2,NE,3.5,-,N/A,,Overcast,50,2013-12-20 22:00:00